[[{"header":{"parameterUnit":"m.s-1","parameterCategory":2,"la1":30.2991,"la2":30.254,"lo1":-89.0895,"lo2":-89.0444,"dy":0.0017,"dx":0.0017,"nx":28,"ny":28,"refTime":"2023-08-24T09:00:00:Z","depth":"0","parameterNumber":2,"parameterNumberName":"U-component_of_CURRENTS"},"data":[0,0,0,0,0,0,0,0,0,0,0,0,0,0,0,0,0,0,0,0,0,0,0,0,0,0,0,0,0,0,0,0,0,0,0,0,0,0,0,0,0,0,0,0,0,0,0,0,0,0,0,0,0,0,0,0,0,0,0.332,0.3321,0,0.3379,0.3379,0.338,0.3378,0.3377,0.3377,0.3376,0.3358,0.3358,0.3358,0,0,0,0,0,0,0,0,0,0,0,0,0,0.321,0.3212,0.332,0.3321,0.3322,0.3379,0.3379,0.338,0.3378,0.3377,0.3377,0.3376,0.3358,0.3358,0.3358,0,0,0,0,0,0,0,0,0,0,0,0,0,0.3259,0.3212,0.332,0.333,0.3332,0.3379,0.3379,0.338,0.3378,0.3377,0.3376,0.3376,0.3358,0.3358,0.3358,0.3374,0,0,0.3358,0.3358,0,0,0,0,0,0,0,0,0.3256,0.3263,0.3328,0.333,0.3332,0.3373,0.3334,0.3375,0.3378,0.3357,0.3376,0.3375,0.3359,0.3359,0.3368,0.3373,0.3372,0.3358,0.3358,0.3358,0.3358,0,0,0,0,0,0,0,0.3253,0.326,0.334,0.3329,0.3331,0.3334,0.3339,0.3342,0.3358,0.3359,0.336,0.3372,0.3359,0.3368,0.3367,0.3372,0.3358,0.3358,0.3358,0.3358,0.343,0.3432,0,0,0,0,0,0,0.3253,0.3257,0.3338,0.3342,0.3295,0.3336,0.3343,0.3358,0.3359,0.336,0.3372,0.3371,0.3368,0.3367,0.3367,0.3429,0.3358,0.3358,0.3358,0.3428,0.3431,0.3433,0,0,0,0,0,0,0.3251,0.326,0.3336,0.3303,0.3313,0.3339,0.3356,0.336,0.3378,0.3371,0.337,0.3388,0.3368,0.3367,0.3388,0.3426,0.3358,0.3358,0.3426,0.3429,0.3432,0.3525,0,0,0,0,0,0,0.3247,0.3259,0.3269,0.3303,0.3315,0.3369,0.3358,0.3361,0.3387,0.3387,0.3384,0.3381,0.3367,0.3388,0.3388,0.3425,0.3358,0.3424,0.3427,0.3431,0.352,0.3531,0.354,0,0,0,0,0,0.3243,0.3261,0.3269,0.3279,0.3329,0.337,0.3376,0.339,0.3389,0.3402,0.3408,0.3382,0.3411,0.339,0.3389,0.3427,0.3422,0.3426,0.3431,0.3515,0.3529,0.354,0,0,0,0,0,0,0.3217,0.3265,0.3273,0.3304,0.3337,0.3371,0.3384,0.34,0.3418,0.3413,0.3405,0.3404,0.3438,0.3421,0.3398,0.3459,0.3413,0.3417,0.3477,0.349,0.35,0.3481,0.3358,0,0,0,0,0,0.3218,0.3241,0.3288,0.3309,0.3328,0.3359,0.3378,0.3391,0.3414,0.3421,0.3421,0.3428,0.3455,0.3462,0.3468,0.35,0.3522,0.3525,0.3535,0.3544,0.3529,0.3611,0.3627,0.3447,0.3447,0.3447,0,0,0.3213,0.3241,0.3254,0.3305,0.3327,0.3364,0.3367,0.34,0.3432,0.3415,0.3446,0.346,0.3472,0.3512,0.3526,0.3503,0.3618,0.355,0.3557,0.3537,0.3617,0.3635,0.365,0.345,0.3449,0.3449,0,0,0.3219,0.3242,0.3267,0.3298,0.3343,0.3367,0.3382,0.3423,0.3441,0.348,0.3488,0.3527,0.3543,0.3575,0.3592,0.3663,0.3669,0.3667,0.3705,0.3786,0.3802,0.3815,0.3913,0.3934,0.3673,0.3673,0.3674,0,0.3211,0.3253,0.328,0.3315,0.3348,0.3373,0.3415,0.3441,0.3482,0.3516,0.3492,0.3575,0.3576,0.3665,0.3684,0.3687,0.3736,0.366,0.3801,0.3815,0.3827,0.3923,0.3945,0.3678,0.3678,0.3677,0.3677,0,0.3241,0.3277,0.3294,0.3348,0.3385,0.3421,0.3471,0.3505,0.3527,0.3561,0.3638,0.3656,0.3709,0.3727,0.3719,0.3822,0.3833,0.3808,0.377,0.3851,0.3947,0.3969,0.3686,0.3684,0.3682,0.3681,0,0,0.3229,0.3302,0.3309,0.334,0.3409,0.344,0.3507,0.3584,0.3635,0.3669,0.3749,0.3797,0.3813,0.3832,0.3852,0.3904,0.4046,0.3888,0.389,0.3985,0.4251,0.4218,0.4238,0.4052,0.4055,0.4058,0.43,0,0.325,0.3315,0.3353,0.3415,0.346,0.351,0.3571,0.3639,0.3692,0.3765,0.3819,0.3888,0.3857,0.3898,0.3951,0.4015,0.4099,0.3983,0.4154,0.4159,0.4121,0.426,0.4088,0.4284,0.4321,0.4324,0.4327,0,0.328,0.3322,0.3392,0.3466,0.349,0.3524,0.3634,0.3689,0.3803,0.3851,0.3936,0.3977,0.4083,0.4028,0.4199,0.413,0.4195,0.4235,0.4246,0.4184,0.4165,0.4199,0.4321,0.4197,0.436,0.4357,0.4355,0,0.3278,0.3349,0.3404,0.343,0.3521,0.356,0.3603,0.3715,0.3801,0.3912,0.3999,0.4101,0.4193,0.4265,0.4362,0.4294,0.4546,0.4471,0.4518,0.4518,0.4384,0.4365,0.4395,0.4603,0.4602,0.4602,0.4601,0,0.3306,0.3351,0.3396,0.3429,0.3505,0.3549,0.3655,0.3716,0.3845,0.3967,0.4037,0.4169,0.4255,0.4408,0.4439,0.4575,0.4635,0.4554,0.4584,0.4416,0.4398,0.4289,0.4237,0.4611,0.4609,0.4607,0.4606,0,0.3336,0.3361,0.3429,0.3493,0.3515,0.3569,0.3699,0.3782,0.3884,0.4053,0.4105,0.4284,0.4462,0.4573,0.4732,0.4711,0.4687,0.4847,0.4655,0.4654,0.4485,0.4446,0.4356,0.4231,0.4904,0.4904,0.4905,0,0.3384,0.3413,0.3471,0.3519,0.3552,0.3637,0.3714,0.3808,0.3903,0.413,0.4213,0.4441,0.4571,0.4807,0.4837,0.4937,0.4775,0.4824,0.4628,0.4483,0.4463,0.4264,0.4149,0.4522,0.452,0.4518,0.4516,0,0.3486,0.3481,0.3524,0.3577,0.3642,0.3731,0.3817,0.389,0.4018,0.414,0.4294,0.4403,0.4652,0.4664,0.4817,0.4837,0.4566,0.478,0.4679,0.4212,0.3949,0.3839,0.4378,0.4497,0.4499,0.45,0.4501,0.4502,0.3564,0.3582,0.3586,0.3635,0.3703,0.3742,0.3762,0.3858,0.3947,0.4047,0.4249,0.4336,0.4474,0.4629,0.4632,0.4511,0.4477,0.4346,0.4337,0.4168,0.3938,0.4445,0.4551,0.4553,0.4555,0.4556,0.4558,0,0.361,0.3592,0.3647,0.3646,0.3666,0.3706,0.3772,0.3748,0.3759,0.394,0.4032,0.4128,0.4162,0.4232,0.4219,0.4086,0.3856,0.3976,0.364,0.3568,0.4081,0.395,0.3869,0.3869,0.3869,0.3869,0.3869,0.3869,0.3626,0.3621,0.3593,0.3573,0.3576,0.3526,0.3518,0.3494,0.356,0.3556,0.3593,0.3702,0.3865,0.3954,0.3835,0.3745,0.3458,0.3319,0.3314,0.3668,0.3699,0.3728,0.3591,0.3435,0.3435,0.2606,0.26,0.2595]},{"header":{"parameterUnit":"m.s-1","parameterCategory":2,"la1":30.2991,"la2":30.254,"lo1":-89.0895,"lo2":-89.0444,"dy":0.0017,"dx":0.0017,"nx":28,"ny":28,"refTime":"2023-08-24T09:00:00:Z","depth":"0","parameterNumber":3,"parameterNumberName":"V-component_of_CURRENTS"},"data":[0,0,0,0,0,0,0,0,0,0,0,0,0,0,0,0,0,0,0,0,0,0,0,0,0,0,0,0,0,0,0,0,0,0,0,0,0,0,0,0,0,0,0,0,0,0,0,0,0,0,0,0,0,0,0,0,0,0,-0.0335,-0.0336,0,-0.0418,-0.0419,-0.042,-0.0469,-0.0469,-0.0469,-0.0469,-0.0589,-0.0592,-0.0595,0,0,0,0,0,0,0,0,0,0,0,0,0,-0.0279,-0.0279,-0.0335,-0.0336,-0.0337,-0.0418,-0.0419,-0.0421,-0.0469,-0.0469,-0.0469,-0.0469,-0.0588,-0.0591,-0.0595,0,0,0,0,0,0,0,0,0,0,0,0,0,-0.0329,-0.028,-0.0335,-0.0369,-0.0373,-0.0418,-0.0419,-0.0421,-0.0469,-0.0469,-0.0469,-0.0469,-0.0586,-0.0591,-0.0596,-0.0625,0,0,-0.061,-0.0612,0,0,0,0,0,0,0,0,-0.0326,-0.0331,-0.0363,-0.0367,-0.0371,-0.0431,-0.0443,-0.049,-0.0469,-0.0435,-0.0469,-0.0469,-0.0538,-0.0547,-0.0565,-0.063,-0.0635,-0.0611,-0.0613,-0.0616,-0.0617,0,0,0,0,0,0,0,-0.0322,-0.0328,-0.037,-0.0364,-0.0369,-0.0401,-0.0408,-0.0453,-0.0488,-0.0438,-0.0441,-0.0447,-0.0541,-0.056,-0.0568,-0.0637,-0.061,-0.0615,-0.0618,-0.0619,-0.069,-0.0689,0,0,0,0,0,0,-0.0304,-0.0324,-0.0368,-0.0373,-0.0346,-0.0401,-0.0409,-0.0414,-0.0487,-0.0497,-0.0447,-0.0449,-0.0552,-0.0563,-0.0573,-0.0559,-0.0615,-0.062,-0.0623,-0.069,-0.0689,-0.0688,0,0,0,0,0,0,-0.0303,-0.0307,-0.0364,-0.0349,-0.0358,-0.0402,-0.0407,-0.0415,-0.0428,-0.0493,-0.0504,-0.0449,-0.0552,-0.0566,-0.059,-0.0566,-0.0622,-0.0626,-0.0692,-0.069,-0.0689,-0.0566,0,0,0,0,0,0,-0.0301,-0.0306,-0.0305,-0.0347,-0.0358,-0.0367,-0.0407,-0.0417,-0.043,-0.0434,-0.0498,-0.051,-0.0554,-0.0582,-0.0595,-0.0574,-0.063,-0.0693,-0.0691,-0.0689,-0.0571,-0.056,-0.0551,0,0,0,0,0,-0.0298,-0.0282,-0.0304,-0.0309,-0.0354,-0.0365,-0.0373,-0.0407,-0.043,-0.0421,-0.0464,-0.0507,-0.0579,-0.0585,-0.06,-0.058,-0.0694,-0.0692,-0.0689,-0.0575,-0.0562,-0.0551,0,0,0,0,0,0,-0.0247,-0.0287,-0.0312,-0.0307,-0.0327,-0.0372,-0.037,-0.0398,-0.0428,-0.0434,-0.0498,-0.0512,-0.0528,-0.057,-0.0575,-0.0595,-0.0643,-0.0644,-0.0551,-0.054,-0.053,-0.0468,-0.0634,0,0,0,0,0,-0.0238,-0.024,-0.028,-0.0273,-0.0283,-0.0329,-0.034,-0.0362,-0.0394,-0.0407,-0.0451,-0.0497,-0.0533,-0.0546,-0.059,-0.0599,-0.0599,-0.0595,-0.0585,-0.0576,-0.0536,-0.0531,-0.0515,-0.0681,-0.0681,-0.0681,0,0,-0.0214,-0.0237,-0.0237,-0.0263,-0.0287,-0.0277,-0.0335,-0.034,-0.0323,-0.0417,-0.0409,-0.047,-0.053,-0.0538,-0.0548,-0.0566,-0.0525,-0.0573,-0.0565,-0.0529,-0.0526,-0.051,-0.0495,-0.0679,-0.068,-0.068,0,0,-0.0152,-0.0189,-0.0167,-0.0179,-0.0205,-0.0235,-0.023,-0.0269,-0.0279,-0.0285,-0.0348,-0.0378,-0.0436,-0.0463,-0.0487,-0.0447,-0.048,-0.0474,-0.0364,-0.036,-0.0346,-0.0333,-0.0288,-0.0273,-0.046,-0.046,-0.046,0,-0.012,-0.0103,-0.0158,-0.0135,-0.0131,-0.0206,-0.0169,-0.019,-0.0227,-0.0223,-0.0261,-0.0324,-0.039,-0.0381,-0.037,-0.042,-0.041,-0.0405,-0.0343,-0.0331,-0.032,-0.0278,-0.0262,-0.0454,-0.0454,-0.0455,-0.0455,0,-0.0039,-0.0029,-0.0013,-0.0014,-0.0015,0.0002,-0.0032,-0.0038,-0.0071,-0.0093,-0.0095,-0.0173,-0.02,-0.0238,-0.0292,-0.0251,-0.0265,-0.0338,-0.0366,-0.0295,-0.0256,-0.0242,-0.0445,-0.0447,-0.0449,-0.045,0,0,0.0044,0.0044,0.0052,0.0078,0.005,0.0068,0.0085,0.009,0.0121,0.0073,0.0128,0.0046,0.0001,-0.0027,-0.0104,-0.0101,-0.0031,-0.0171,-0.0174,-0.0108,0.0022,-0.0007,0.0005,-0.0095,-0.0092,-0.009,0.0028,0,0.0127,0.0203,0.0175,0.0251,0.0284,0.023,0.0261,0.0254,0.0232,0.0261,0.0195,0.0201,0.0083,0.0078,0.0062,-0.002,0.001,-0.0053,-0.007,-0.0069,-0.009,0.0021,-0.0007,0.0093,0.0042,0.0044,0.0046,0,0.0217,0.0256,0.0344,0.0387,0.0399,0.0426,0.0463,0.0488,0.0484,0.0474,0.0464,0.0405,0.0399,0.0289,0.0244,0.021,0.015,0.0092,0.0093,0.004,-0.0072,0.0007,0.012,-0.0106,0.0067,0.0066,0.0064,0,0.0314,0.0377,0.0454,0.0468,0.0499,0.053,0.055,0.0551,0.0603,0.0622,0.0669,0.0617,0.0636,0.0535,0.0403,0.0331,0.0377,0.0247,0.0186,0.0184,0.0147,0.0137,0.0056,0.0264,0.0264,0.0263,0.0263,0,0.0406,0.0472,0.0504,0.0549,0.0649,0.0639,0.0742,0.074,0.0791,0.0893,0.0798,0.0886,0.07,0.0681,0.0518,0.0427,0.0468,0.0262,0.0224,0.0189,0.0181,-0.0033,-0.0158,0.0268,0.0267,0.0266,0.0265,0,0.0488,0.0507,0.0606,0.0667,0.0691,0.0768,0.0865,0.0944,0.097,0.1111,0.1137,0.1127,0.1104,0.0932,0.0806,0.0611,0.0373,0.0452,0.0447,0.0406,0.007,-0.0046,-0.0102,-0.0205,0.0392,0.0392,0.0392,0,0.0535,0.0591,0.0698,0.0764,0.0789,0.0898,0.0974,0.1024,0.1118,0.1274,0.1362,0.1399,0.1452,0.1266,0.0943,0.0709,0.047,0.049,0.0321,0.0104,-0.0054,-0.0144,-0.0234,0.0337,0.0337,0.0336,0.0336,0,0.0628,0.066,0.074,0.0865,0.0959,0.1085,0.1199,0.1301,0.1402,0.1544,0.1728,0.1799,0.1646,0.1407,0.1062,0.0841,0.0305,0.0474,0.0245,-0.0079,-0.0173,-0.0308,0.0228,0.0334,0.0334,0.0334,0.0334,0.0334,0.0695,0.0762,0.0853,0.0968,0.1091,0.1235,0.1351,0.1504,0.1697,0.1928,0.1995,0.2166,0.1774,0.1304,0.0982,0.032,0.0328,0.0067,-0.0037,-0.0093,-0.0252,0.0305,0.0346,0.0346,0.0347,0.0347,0.0347,0,0.0761,0.0824,0.0946,0.1086,0.1225,0.1269,0.1474,0.1612,0.1857,0.2131,0.232,0.2257,0.1753,0.1201,0.034,-0.0123,-0.0317,-0.0385,-0.0544,-0.0603,-0.0105,-0.0175,-0.024,-0.024,-0.024,-0.024,-0.024,-0.0239,0.0799,0.0899,0.0946,0.1152,0.1263,0.1447,0.1566,0.18,0.2023,0.236,0.2519,0.2608,0.2159,0.0662,-0.0392,-0.0644,-0.0961,-0.1012,-0.1157,-0.0876,-0.0844,-0.0813,-0.0911,-0.1129,-0.113,-0.1635,-0.164,-0.1644]}],[{"header":{"parameterUnit":"m.s-1","parameterCategory":2,"la1":30.2991,"la2":30.254,"lo1":-89.0895,"lo2":-89.0444,"dy":0.0017,"dx":0.0017,"nx":28,"ny":28,"refTime":"2023-08-24T09:00:00:Z","depth":"2","parameterNumber":2,"parameterNumberName":"U-component_of_CURRENTS"},"data":[0,0,0,0,0,0,0,0,0,0,0,0,0,0,0,0,0,0,0,0,0,0,0,0,0,0,0,0,0,0,0,0,0,0,0,0,0,0,0,0,0,0,0,0,0,0,0,0,0,0,0,0,0,0,0,0,0,0,0.2421,0.2422,0,0.2498,0.2498,0.2499,0.2542,0.2543,0.2544,0.2544,0.2588,0.2589,0.2589,0,0,0,0,0,0,0,0,0,0,0,0,0,0.2351,0.2351,0.2421,0.2423,0.2424,0.2498,0.2498,0.2499,0.2542,0.2543,0.2544,0.2545,0.2588,0.2589,0.2589,0,0,0,0,0,0,0,0,0,0,0,0,0,0.2393,0.2351,0.2421,0.246,0.2464,0.2498,0.2498,0.2499,0.2542,0.2543,0.2544,0.2545,0.2588,0.2589,0.2589,0.2571,0,0,0.2591,0.2592,0,0,0,0,0,0,0,0,0.239,0.2395,0.2452,0.2457,0.2463,0.2518,0.249,0.2524,0.2541,0.2505,0.2544,0.2546,0.2565,0.2568,0.2571,0.2573,0.2574,0.2591,0.2592,0.2592,0.2592,0,0,0,0,0,0,0,0.2387,0.2392,0.2445,0.2454,0.246,0.2487,0.2493,0.2496,0.2522,0.2508,0.2513,0.2533,0.2567,0.257,0.2572,0.2575,0.2591,0.2592,0.2592,0.2593,0.2653,0.2654,0,0,0,0,0,0,0.2388,0.2389,0.2442,0.2448,0.2436,0.2488,0.2495,0.2493,0.2523,0.2531,0.2531,0.2534,0.2568,0.2571,0.2574,0.2631,0.2592,0.2593,0.2593,0.2652,0.2653,0.2655,0,0,0,0,0,0,0.2386,0.2391,0.2439,0.2427,0.2436,0.2488,0.2486,0.2494,0.252,0.2542,0.2548,0.2552,0.2569,0.2573,0.2572,0.2631,0.2593,0.2594,0.2651,0.2652,0.2654,0.2697,0,0,0,0,0,0,0.2383,0.2389,0.2382,0.2426,0.2437,0.2479,0.2486,0.2495,0.2532,0.2537,0.2561,0.2565,0.257,0.2571,0.2573,0.2631,0.2594,0.2649,0.2651,0.2654,0.2694,0.27,0.2705,0,0,0,0,0,0.238,0.2395,0.2381,0.2388,0.2427,0.2481,0.2488,0.2525,0.2532,0.2549,0.2544,0.2566,0.2589,0.257,0.2573,0.2633,0.2648,0.2651,0.2653,0.2691,0.2698,0.2705,0,0,0,0,0,0,0.2376,0.2402,0.2388,0.2411,0.2443,0.2492,0.2522,0.2533,0.2543,0.2549,0.2552,0.2555,0.2601,0.2591,0.2571,0.2658,0.2634,0.2637,0.2663,0.2669,0.2675,0.2702,0.2595,0,0,0,0,0,0.2363,0.2372,0.2403,0.242,0.244,0.2472,0.2497,0.2522,0.2544,0.2552,0.2566,0.2582,0.2611,0.2614,0.2643,0.2653,0.2678,0.2703,0.2708,0.2713,0.2737,0.279,0.2802,0.2664,0.2664,0.2664,0,0,0.2366,0.2384,0.2387,0.2418,0.2447,0.2479,0.2491,0.2546,0.2575,0.2552,0.2591,0.2609,0.2621,0.2659,0.2679,0.2654,0.2767,0.2716,0.272,0.2742,0.2794,0.2807,0.282,0.2665,0.2665,0.2665,0,0,0.2392,0.2393,0.2408,0.2435,0.2483,0.2504,0.2522,0.2572,0.2599,0.2622,0.2635,0.2668,0.2692,0.2718,0.2731,0.2775,0.2809,0.28,0.2831,0.2881,0.2894,0.2905,0.2959,0.2975,0.2783,0.2783,0.2783,0,0.2386,0.2406,0.2426,0.2455,0.2487,0.2516,0.2551,0.2581,0.2622,0.2652,0.2647,0.272,0.273,0.2783,0.2805,0.2795,0.2825,0.2802,0.289,0.2901,0.2912,0.2965,0.2982,0.2785,0.2785,0.2785,0.2785,0,0.2424,0.2438,0.2466,0.2491,0.2528,0.2574,0.2617,0.2649,0.268,0.2719,0.2795,0.2799,0.2846,0.2862,0.2845,0.2933,0.2933,0.2906,0.2874,0.2929,0.2981,0.2997,0.2789,0.2788,0.2787,0.2787,0,0,0.2412,0.247,0.2479,0.2489,0.2553,0.2586,0.2642,0.2706,0.2753,0.2802,0.2869,0.2922,0.295,0.2967,0.2964,0.2993,0.3091,0.298,0.2982,0.3037,0.3216,0.315,0.3161,0.3077,0.308,0.3082,0.3224,0,0.2428,0.2473,0.2509,0.2556,0.2584,0.263,0.2681,0.2746,0.2804,0.2874,0.2923,0.2994,0.2983,0.3009,0.3048,0.3093,0.3137,0.3056,0.3154,0.3158,0.3093,0.3179,0.2922,0.3021,0.324,0.3243,0.3245,0,0.2449,0.2477,0.2523,0.258,0.2601,0.2637,0.2723,0.2776,0.2885,0.2938,0.302,0.3068,0.3154,0.3116,0.3242,0.3193,0.3224,0.324,0.3245,0.3184,0.3122,0.3001,0.3043,0.3273,0.327,0.3268,0.3267,0,0.243,0.2485,0.2517,0.2539,0.2612,0.2649,0.2697,0.2803,0.2876,0.2988,0.3069,0.3159,0.324,0.3286,0.3347,0.3308,0.3469,0.3411,0.3383,0.3379,0.3182,0.3154,0.3503,0.3502,0.3502,0.3502,0.3501,0,0.2435,0.2459,0.2506,0.2531,0.2589,0.2643,0.2732,0.2796,0.2915,0.3,0.3111,0.3202,0.3292,0.339,0.34,0.3465,0.3525,0.3428,0.3421,0.3188,0.3161,0.3387,0.3371,0.3507,0.3506,0.3505,0.3504,0,0.2416,0.2447,0.2482,0.2552,0.2586,0.2628,0.2759,0.2802,0.2943,0.3053,0.31,0.3292,0.3418,0.3491,0.3584,0.3554,0.3587,0.3585,0.3312,0.327,0.3451,0.3436,0.3581,0.358,0.3579,0.3578,0.3578,0,0.2413,0.2427,0.2495,0.2514,0.255,0.2627,0.2671,0.2804,0.2864,0.3087,0.3133,0.3331,0.3424,0.3586,0.356,0.3585,0.3624,0.3351,0.322,0.3486,0.3465,0.3451,0.3438,0.2982,0.2976,0.2972,0.2968,0,0.2398,0.2415,0.2443,0.2471,0.2509,0.2568,0.265,0.271,0.2841,0.2958,0.3108,0.321,0.3396,0.3335,0.3395,0.3357,0.3319,0.3262,0.3633,0.2994,0.293,0.2906,0.2911,0.2929,0.2933,0.2936,0.2938,0.294,0.2372,0.2379,0.2383,0.2414,0.2465,0.2482,0.2485,0.2573,0.2662,0.2778,0.294,0.3019,0.3102,0.3088,0.3004,0.2952,0.3166,0.3008,0.3018,0.3034,0.2931,0.2868,0.2838,0.2842,0.2844,0.2847,0.2849,0,0.2289,0.2302,0.2316,0.2333,0.2335,0.2393,0.244,0.2384,0.2432,0.2581,0.2683,0.2521,0.2541,0.2628,0.2497,0.2498,0.2432,0.2391,0.2278,0.2322,0.236,0.2216,0.1938,0.1934,0.1931,0.1928,0,0,0.2236,0.2209,0.2219,0.2191,0.2218,0.2136,0.2136,0.2115,0.217,0.2162,0.2226,0.244,0.2571,0.2217,0.2178,0.2036,0.2149,0.1958,0.2701,0.2613,0.2646,0.2744,0.2579,0,0,0,0,0]},{"header":{"parameterUnit":"m.s-1","parameterCategory":2,"la1":30.2991,"la2":30.254,"lo1":-89.0895,"lo2":-89.0444,"dy":0.0017,"dx":0.0017,"nx":28,"ny":28,"refTime":"2023-08-24T09:00:00:Z","depth":"2","parameterNumber":3,"parameterNumberName":"V-component_of_CURRENTS"},"data":[0,0,0,0,0,0,0,0,0,0,0,0,0,0,0,0,0,0,0,0,0,0,0,0,0,0,0,0,0,0,0,0,0,0,0,0,0,0,0,0,0,0,0,0,0,0,0,0,0,0,0,0,0,0,0,0,0,0,0.023,0.023,0,0.017,0.0169,0.0168,0.0119,0.0119,0.0119,0.0118,0.003,0.0028,0.0025,0,0,0,0,0,0,0,0,0,0,0,0,0,0.0213,0.0214,0.0231,0.023,0.0229,0.017,0.0169,0.0168,0.0119,0.0119,0.0119,0.0118,0.003,0.0028,0.0025,0,0,0,0,0,0,0,0,0,0,0,0,0,0.0191,0.0214,0.0231,0.02,0.0196,0.017,0.0169,0.0168,0.0119,0.0119,0.0119,0.0118,0.0031,0.0028,0.0025,0.0014,0,0,0.0015,0.0014,0,0,0,0,0,0,0,0,0.0193,0.0192,0.0205,0.0202,0.0198,0.0154,0.013,0.0116,0.012,0.0146,0.0118,0.0118,0.007,0.0064,0.0051,0.001,0.0006,0.0015,0.0013,0.0012,0.0011,0,0,0,0,0,0,0,0.0194,0.0193,0.0204,0.0204,0.02,0.0158,0.0155,0.0127,0.0109,0.0144,0.0141,0.0138,0.0068,0.0054,0.0048,0.0005,0.0015,0.0012,0.001,0.0009,-0.0048,-0.0047,0,0,0,0,0,0,0.0212,0.0196,0.0206,0.0203,0.0197,0.0159,0.0155,0.0167,0.011,0.0102,0.0138,0.0136,0.0059,0.0052,0.0045,0.0034,0.0012,0.0009,0.0007,-0.0048,-0.0048,-0.0047,0,0,0,0,0,0,0.0212,0.0214,0.0209,0.0198,0.0195,0.0161,0.0173,0.0166,0.0152,0.0106,0.0097,0.0132,0.0059,0.0049,0.0041,0.003,0.0007,0.0005,-0.0049,-0.0048,-0.0048,0.0008,0,0,0,0,0,0,0.0212,0.0215,0.023,0.02,0.0196,0.0196,0.0173,0.0165,0.0152,0.0148,0.0098,0.0089,0.0058,0.0046,0.0038,0.0025,0.0002,-0.0049,-0.0048,-0.0048,0.0006,0.0011,0.0015,0,0,0,0,0,0.0212,0.0228,0.0231,0.0232,0.0219,0.0197,0.019,0.0162,0.0152,0.0147,0.013,0.0091,0.0043,0.0045,0.0034,0.0021,-0.0049,-0.0049,-0.0048,0.0004,0.001,0.0015,0,0,0,0,0,0,0.0219,0.0224,0.0227,0.0243,0.0226,0.0189,0.0183,0.0167,0.0148,0.0148,0.0106,0.0097,0.0079,0.005,0.0053,0.0007,-0.0015,-0.0015,0.0028,0.0033,0.0038,0.0056,-0.0001,0,0,0,0,0,0.0234,0.0253,0.0241,0.0253,0.0248,0.0219,0.0208,0.0191,0.017,0.016,0.0127,0.0097,0.0074,0.0058,0.0029,0.0012,-0.0015,-0.0006,-0.0002,0.0002,0.0011,-0.0028,-0.0027,-0.0045,-0.0045,-0.0045,0,0,0.0237,0.0245,0.0254,0.0257,0.0241,0.0242,0.0211,0.0197,0.0198,0.0155,0.0143,0.0112,0.0075,0.0056,0.0044,0.0031,-0.0007,0.0003,0.0007,0.0014,-0.0027,-0.0025,-0.0024,-0.0044,-0.0044,-0.0044,0,0,0.0252,0.0264,0.0285,0.0279,0.027,0.0255,0.0256,0.0226,0.0212,0.0202,0.0173,0.0147,0.0104,0.0077,0.0059,0.0072,0.002,0.0053,0.0085,0.0048,0.0049,0.0049,0.0021,0.0018,0.0052,0.0052,0.0052,0,0.026,0.0291,0.0282,0.0296,0.0299,0.0268,0.0282,0.0263,0.0233,0.0231,0.0206,0.0153,0.0113,0.0101,0.0101,0.008,0.0057,0.0069,0.0053,0.0054,0.0053,0.0024,0.002,0.0055,0.0055,0.0054,0.0054,0,0.0287,0.0312,0.0318,0.034,0.0337,0.0341,0.0324,0.0317,0.0297,0.0275,0.0253,0.0203,0.0173,0.0146,0.0126,0.0106,0.009,0.0066,0.0042,0.0059,0.0026,0.0022,0.0059,0.0058,0.0057,0.0056,0,0,0.0307,0.0338,0.0342,0.0368,0.0366,0.037,0.0376,0.0375,0.0388,0.0335,0.0341,0.028,0.0247,0.0226,0.0186,0.0147,0.0117,0.0111,0.0108,0.0087,0.0042,0.0006,-0.0003,0.009,0.009,0.0089,0.0022,0,0.0336,0.0388,0.0389,0.043,0.0456,0.044,0.0455,0.0447,0.0427,0.0421,0.0358,0.0343,0.0279,0.0269,0.0219,0.0151,0.0108,0.0138,0.0026,0.0023,-0.0009,-0.0009,0.0024,-0.0036,0.0017,0.0016,0.0016,0,0.0368,0.0405,0.0457,0.0504,0.0513,0.0528,0.0559,0.0569,0.0548,0.0532,0.0493,0.0442,0.0388,0.0328,0.0207,0.0232,0.0144,0.0078,0.0073,0.0018,-0.0022,-0.0046,-0.0046,0.0008,0.0008,0.0009,0.001,0,0.0407,0.0455,0.0508,0.052,0.0558,0.058,0.0602,0.0601,0.0634,0.0606,0.062,0.0528,0.0507,0.0378,0.023,0.0222,0.0094,0.0061,-0.0056,-0.006,-0.0064,-0.0068,-0.0031,-0.0031,-0.0031,-0.0031,-0.0031,0,0.0448,0.0489,0.0532,0.0562,0.0633,0.0635,0.0703,0.0707,0.0729,0.0777,0.0688,0.0705,0.0519,0.042,0.0265,0.0095,0.0114,-0.0048,-0.0081,-0.0044,-0.0045,-0.0034,-0.0033,-0.0033,-0.0033,-0.0032,-0.0032,0,0.0481,0.0508,0.0576,0.0632,0.0656,0.0708,0.0791,0.0838,0.0849,0.091,0.091,0.0845,0.0716,0.0515,0.0311,0.0159,-0.0016,-0.0085,-0.0026,-0.0053,-0.0151,-0.0147,-0.0218,-0.022,-0.0221,-0.0223,-0.0224,0,0.0503,0.0542,0.0635,0.0688,0.0716,0.0795,0.0857,0.0896,0.096,0.1002,0.1045,0.0946,0.0891,0.0581,0.0286,0.0001,-0.0029,-0.0155,-0.0179,-0.0146,-0.0171,-0.0164,-0.0158,-0.016,-0.0161,-0.0161,-0.0161,0,0.0544,0.0578,0.0639,0.0759,0.0834,0.0934,0.1027,0.1101,0.1154,0.1207,0.1266,0.1225,0.0928,0.0653,0.025,0.0059,-0.0113,-0.0174,-0.0152,-0.0121,-0.0098,-0.0121,-0.0115,-0.0165,-0.0165,-0.0164,-0.0164,-0.0164,0.0577,0.0631,0.0725,0.0838,0.0937,0.1072,0.1178,0.1273,0.1396,0.1479,0.1423,0.1365,0.104,0.0533,0.02,-0.015,-0.0138,-0.0254,-0.025,-0.0246,-0.023,-0.0212,-0.0297,-0.0297,-0.0297,-0.0298,-0.0298,0,0.0625,0.0694,0.0799,0.0954,0.1082,0.1127,0.1296,0.139,0.1547,0.1578,0.1605,0.1284,0.0966,0.0595,0.0078,-0.0235,-0.0248,-0.0329,-0.0267,-0.0261,-0.0256,-0.024,-0.031,-0.0311,-0.0311,-0.0312,0,0,0.0655,0.0761,0.0822,0.1049,0.1168,0.1349,0.1458,0.1587,0.1654,0.1677,0.1632,0.152,0.1073,0.07,0.0278,-0.001,-0.0062,-0.007,-0.0027,0.0103,0.0111,-0.0183,-0.0147,0,0,0,0,0]}],[{"header":{"parameterUnit":"m.s-1","parameterCategory":2,"la1":30.2991,"la2":30.254,"lo1":-89.0895,"lo2":-89.0444,"dy":0.0017,"dx":0.0017,"nx":28,"ny":28,"refTime":"2023-08-24T09:00:00:Z","depth":"4","parameterNumber":2,"parameterNumberName":"U-component_of_CURRENTS"},"data":[0,0,0,0,0,0,0,0,0,0,0,0,0,0,0,0,0,0,0,0,0,0,0,0,0,0,0,0,0,0,0,0,0,0,0,0,0,0,0,0,0,0,0,0,0,0,0,0,0,0,0,0,0,0,0,0,0,0,0.1367,0.1368,0,0.1429,0.143,0.143,0.1473,0.1474,0.1474,0.1475,0.153,0.1531,0.1532,0,0,0,0,0,0,0,0,0,0,0,0,0,0.1285,0.1286,0.1367,0.1368,0.1369,0.1429,0.143,0.143,0.1473,0.1474,0.1474,0.1475,0.153,0.1531,0.1532,0,0,0,0,0,0,0,0,0,0,0,0,0,0.1327,0.1286,0.1367,0.1401,0.1405,0.1429,0.143,0.143,0.1473,0.1474,0.1475,0.1476,0.153,0.1531,0.1532,0.1518,0,0,0.1536,0.1536,0,0,0,0,0,0,0,0,0.1325,0.133,0.1395,0.1399,0.1403,0.1448,0.1422,0.1461,0.1472,0.1442,0.1475,0.1476,0.1504,0.1507,0.1511,0.1521,0.1523,0.1536,0.1537,0.1537,0.1537,0,0,0,0,0,0,0,0.1322,0.1327,0.1387,0.1396,0.1401,0.1414,0.142,0.1429,0.1463,0.1445,0.1449,0.1463,0.1506,0.151,0.1513,0.1524,0.1536,0.1537,0.1538,0.1538,0.1645,0.1647,0,0,0,0,0,0,0.1322,0.1325,0.1386,0.139,0.1371,0.1415,0.1422,0.1429,0.1463,0.1471,0.1462,0.1465,0.1507,0.1511,0.1515,0.1603,0.1537,0.1538,0.1539,0.1643,0.1646,0.1648,0,0,0,0,0,0,0.132,0.1326,0.1383,0.1362,0.1371,0.1415,0.1423,0.143,0.1469,0.1477,0.1484,0.1498,0.1508,0.1513,0.1552,0.1602,0.1539,0.154,0.1641,0.1644,0.1647,0.1714,0,0,0,0,0,0,0.1317,0.1325,0.1343,0.1362,0.1372,0.142,0.1423,0.1431,0.1475,0.148,0.1509,0.1514,0.1509,0.155,0.1553,0.1602,0.1541,0.1638,0.1642,0.1646,0.1709,0.1719,0.1728,0,0,0,0,0,0.1313,0.1334,0.1343,0.1352,0.1391,0.1421,0.1428,0.1459,0.1476,0.1497,0.1519,0.1515,0.1578,0.1552,0.1555,0.1606,0.1636,0.1641,0.1645,0.1705,0.1717,0.1727,0,0,0,0,0,0,0.1311,0.1341,0.1352,0.1381,0.141,0.1431,0.1461,0.1478,0.1511,0.1527,0.1529,0.1535,0.1594,0.1587,0.1559,0.1651,0.1612,0.1617,0.1656,0.1667,0.1676,0.1684,0.1542,0,0,0,0,0,0.1317,0.1342,0.1367,0.1396,0.1412,0.1441,0.1464,0.1486,0.1513,0.153,0.1552,0.158,0.1609,0.1628,0.1649,0.1687,0.1695,0.1728,0.1737,0.1744,0.1755,0.1798,0.1812,0.1664,0.1663,0.1663,0,0,0.1325,0.1347,0.1362,0.1398,0.1423,0.1455,0.1458,0.1504,0.1541,0.1529,0.1594,0.1614,0.1628,0.1679,0.1705,0.1683,0.1795,0.1751,0.1757,0.1763,0.1804,0.1819,0.1831,0.1667,0.1666,0.1666,0,0,0.1347,0.1373,0.1398,0.1425,0.1473,0.1491,0.1512,0.1553,0.1585,0.1635,0.1648,0.1694,0.1734,0.1756,0.1769,0.1841,0.1844,0.1862,0.1912,0.1954,0.1967,0.1978,0.2018,0.2032,0.1864,0.1864,0.1864,0,0.1358,0.139,0.1413,0.1445,0.1477,0.1511,0.1548,0.1582,0.1634,0.1667,0.167,0.1759,0.177,0.1834,0.1865,0.1863,0.1888,0.1865,0.1966,0.1977,0.1987,0.2025,0.2039,0.1868,0.1867,0.1867,0.1866,0,0.139,0.1428,0.145,0.1499,0.1534,0.1576,0.162,0.1671,0.1715,0.1746,0.1831,0.185,0.1904,0.1921,0.1915,0.2002,0.1999,0.1973,0.1934,0.2005,0.2042,0.2055,0.1873,0.1872,0.1871,0.187,0,0,0.1383,0.1456,0.1468,0.15,0.1569,0.1598,0.1671,0.1737,0.1794,0.1853,0.1924,0.1984,0.2009,0.2028,0.2038,0.2073,0.2167,0.2063,0.2064,0.2097,0.2275,0.2126,0.2127,0.2164,0.2166,0.2168,0.2276,0,0.1405,0.1467,0.1503,0.1573,0.1607,0.1666,0.1727,0.1796,0.1857,0.1934,0.1982,0.2051,0.2046,0.2085,0.2127,0.2161,0.2206,0.2141,0.2206,0.2208,0.2061,0.2138,0.2177,0.2286,0.2289,0.2291,0.2293,0,0.1418,0.1461,0.1526,0.1609,0.1632,0.1686,0.1793,0.1852,0.1959,0.201,0.2092,0.213,0.222,0.2189,0.2298,0.2264,0.2286,0.2297,0.23,0.2145,0.2084,0.2198,0.2317,0.2315,0.2314,0.2312,0.231,0,0.1388,0.1476,0.153,0.1559,0.1657,0.1714,0.1779,0.1884,0.1946,0.2069,0.2128,0.2227,0.2298,0.2344,0.2388,0.236,0.2486,0.244,0.2328,0.2318,0.2388,0.2375,0.2511,0.2511,0.2511,0.2511,0.251,0,0.1378,0.1426,0.1528,0.1557,0.1634,0.1712,0.1806,0.1885,0.2004,0.207,0.2173,0.2235,0.2344,0.242,0.2433,0.2432,0.2532,0.2354,0.2338,0.2416,0.2405,0.2399,0.2384,0.2515,0.2514,0.2513,0.2512,0,0.1325,0.1395,0.1458,0.1574,0.1619,0.1674,0.1815,0.1865,0.2002,0.2095,0.2142,0.229,0.2383,0.2463,0.255,0.2481,0.2489,0.246,0.2565,0.255,0.2283,0.2272,0.2342,0.2337,0.2334,0.2331,0.2328,0,0.1294,0.1321,0.145,0.1483,0.1541,0.1641,0.1694,0.1847,0.1902,0.2096,0.2122,0.2279,0.2353,0.2375,0.2459,0.249,0.2452,0.2442,0.2334,0.229,0.2269,0.2262,0.2255,0.2322,0.2321,0.232,0.2319,0,0.1218,0.1278,0.1328,0.1404,0.1469,0.1529,0.1631,0.1674,0.1834,0.1982,0.2059,0.2114,0.2221,0.2286,0.234,0.2343,0.2436,0.2403,0.2409,0.2308,0.2267,0.2248,0.2246,0.2307,0.2309,0.231,0.231,0,0.1155,0.1167,0.1236,0.1298,0.1365,0.1387,0.1466,0.1542,0.1632,0.1858,0.188,0.2041,0.2197,0.2211,0.225,0.2258,0.221,0.2117,0.2137,0.2152,0.2036,0.1954,0.1898,0,0,0,0,0,0.1076,0.1079,0.1118,0.1166,0.1226,0.1271,0.1396,0.1478,0.1659,0.1663,0.1774,0.1857,0.1934,0.2024,0.1993,0.2152,0.2208,0.2104,0.2108,0.2236,0.2251,0.213,0,0,0,0,0,0,0.1014,0.1046,0.1074,0.1043,0.1051,0.1096,0.1172,0.1293,0.1323,0.152,0.1584,0.1726,0.1841,0.1929,0.195,0.1976,0.1935,0.2216,0.221,0.2228,0.2241,0.2253,0.2134,0,0,0,0,0]},{"header":{"parameterUnit":"m.s-1","parameterCategory":2,"la1":30.2991,"la2":30.254,"lo1":-89.0895,"lo2":-89.0444,"dy":0.0017,"dx":0.0017,"nx":28,"ny":28,"refTime":"2023-08-24T09:00:00:Z","depth":"4","parameterNumber":3,"parameterNumberName":"V-component_of_CURRENTS"},"data":[0,0,0,0,0,0,0,0,0,0,0,0,0,0,0,0,0,0,0,0,0,0,0,0,0,0,0,0,0,0,0,0,0,0,0,0,0,0,0,0,0,0,0,0,0,0,0,0,0,0,0,0,0,0,0,0,0,0,0.0237,0.0237,0,0.0208,0.0207,0.0207,0.0188,0.0188,0.0188,0.0188,0.0137,0.0136,0.0135,0,0,0,0,0,0,0,0,0,0,0,0,0,0.0228,0.0228,0.0237,0.0237,0.0237,0.0208,0.0207,0.0207,0.0188,0.0188,0.0188,0.0188,0.0138,0.0136,0.0135,0,0,0,0,0,0,0,0,0,0,0,0,0,0.0217,0.0228,0.0237,0.0225,0.0224,0.0208,0.0207,0.0207,0.0188,0.0188,0.0188,0.0188,0.0138,0.0136,0.0134,0.0122,0,0,0.0128,0.0127,0,0,0,0,0,0,0,0,0.0218,0.0217,0.0227,0.0226,0.0224,0.0203,0.0185,0.0178,0.0188,0.02,0.0188,0.0188,0.0158,0.0154,0.0147,0.0119,0.0117,0.0128,0.0127,0.0126,0.0125,0,0,0,0,0,0,0,0.0219,0.0218,0.0224,0.0227,0.0225,0.0204,0.0203,0.0184,0.0178,0.0199,0.0198,0.0197,0.0157,0.0149,0.0146,0.0116,0.0128,0.0126,0.0125,0.0124,0.0079,0.0079,0,0,0,0,0,0,0.0228,0.0219,0.0225,0.0224,0.0222,0.0204,0.0203,0.0209,0.0179,0.0175,0.0197,0.0196,0.0153,0.0148,0.0144,0.0137,0.0126,0.0124,0.0123,0.0079,0.0079,0.0079,0,0,0,0,0,0,0.0228,0.0229,0.0226,0.0221,0.022,0.0205,0.0211,0.0208,0.0206,0.0177,0.0173,0.0199,0.0153,0.0147,0.0136,0.0135,0.0123,0.0121,0.0079,0.0079,0.0079,0.0117,0,0,0,0,0,0,0.0228,0.0229,0.0239,0.0222,0.022,0.0224,0.0211,0.0207,0.0206,0.0205,0.0178,0.0173,0.0152,0.0139,0.0134,0.0132,0.012,0.0079,0.0079,0.0079,0.0116,0.0118,0.012,0,0,0,0,0,0.0227,0.0239,0.0239,0.024,0.0234,0.0224,0.0221,0.0209,0.0206,0.0207,0.0192,0.0174,0.0135,0.0138,0.0132,0.0129,0.0079,0.0079,0.0079,0.0115,0.0118,0.012,0,0,0,0,0,0,0.0235,0.0238,0.0238,0.0249,0.0241,0.0222,0.0223,0.0215,0.0204,0.0205,0.0177,0.0171,0.016,0.014,0.0144,0.0115,0.0102,0.0101,0.0132,0.0134,0.0137,0.0146,0.0118,0,0,0,0,0,0.0244,0.0257,0.0249,0.0258,0.0256,0.0242,0.0238,0.0231,0.0218,0.0213,0.0195,0.0173,0.0154,0.0143,0.0124,0.011,0.0079,0.0102,0.0105,0.0107,0.011,0.0061,0.006,0.0079,0.0079,0.0079,0,0,0.0248,0.0253,0.0259,0.0261,0.0254,0.0256,0.0239,0.0238,0.0239,0.0209,0.0206,0.0184,0.0153,0.0139,0.0131,0.0123,0.0085,0.0107,0.0109,0.0111,0.0061,0.0059,0.0058,0.0079,0.0079,0.0079,0,0,0.0261,0.0269,0.0282,0.028,0.0278,0.027,0.0273,0.026,0.0255,0.0249,0.0226,0.0206,0.0179,0.0155,0.0139,0.0142,0.0102,0.0134,0.0151,0.0104,0.0102,0.0099,0.0058,0.0052,0.0132,0.0132,0.0132,0,0.0267,0.0285,0.0282,0.0291,0.0295,0.028,0.029,0.0281,0.0266,0.0262,0.0254,0.021,0.0185,0.016,0.0161,0.0148,0.0116,0.0144,0.0107,0.0104,0.0101,0.0059,0.0052,0.0134,0.0134,0.0134,0.0134,0,0.0284,0.0302,0.0308,0.032,0.0321,0.0327,0.0318,0.0318,0.0311,0.0297,0.0278,0.0241,0.0214,0.0199,0.0182,0.015,0.0133,0.0118,0.0101,0.0101,0.0057,0.0049,0.0137,0.0136,0.0136,0.0135,0,0,0.029,0.0317,0.032,0.0338,0.034,0.0344,0.0349,0.0347,0.0353,0.0325,0.032,0.0278,0.0256,0.0237,0.0206,0.0163,0.0116,0.0136,0.0133,0.0098,0.0012,0.0003,-0.0007,0.0092,0.0091,0.009,-0.001,0,0.0305,0.0339,0.0344,0.0373,0.039,0.0385,0.0394,0.0389,0.0377,0.0367,0.032,0.0304,0.0271,0.026,0.0211,0.0144,0.0096,0.0144,0.0014,0.001,0.0004,-0.0017,0.0086,-0.0017,-0.0019,-0.002,-0.0021,0,0.0319,0.0344,0.0379,0.0415,0.0422,0.0437,0.0453,0.046,0.0438,0.0426,0.0392,0.0355,0.0298,0.0269,0.0144,0.0177,0.0099,0.004,0.0034,0.0007,-0.0014,-0.0019,-0.0037,-0.0035,-0.0034,-0.0033,-0.0032,0,0.0331,0.0368,0.0405,0.0415,0.0447,0.0465,0.0484,0.0479,0.0498,0.0466,0.0465,0.0386,0.0355,0.0246,0.0127,0.0132,-0.0018,-0.0028,-0.0114,-0.0115,-0.0093,-0.009,-0.0127,-0.0126,-0.0126,-0.0126,-0.0126,0,0.0348,0.0376,0.0419,0.044,0.049,0.0498,0.0544,0.0546,0.0552,0.0573,0.0503,0.0488,0.0347,0.0248,0.0132,-0.0016,-0.002,-0.0116,-0.0145,-0.0074,-0.0068,-0.0099,-0.0094,-0.013,-0.0129,-0.0128,-0.0128,0,0.0355,0.0382,0.043,0.0479,0.0502,0.0539,0.0606,0.0634,0.0631,0.0653,0.0648,0.0561,0.0428,0.0275,0.0094,-0.0,-0.0145,-0.0199,-0.0111,-0.0132,-0.0212,-0.0205,-0.0302,-0.0304,-0.0305,-0.0306,-0.0306,0,0.0363,0.0389,0.0466,0.0508,0.0537,0.0599,0.0647,0.0675,0.0711,0.0697,0.0709,0.0591,0.0511,0.0255,0.0083,-0.0153,-0.0185,-0.0259,-0.0239,-0.0214,-0.0232,-0.0223,-0.0214,-0.0308,-0.0308,-0.0308,-0.0309,0,0.0379,0.041,0.0456,0.0546,0.0609,0.068,0.075,0.0784,0.0811,0.0803,0.0761,0.0624,0.0467,0.0262,0.0072,-0.0095,-0.0209,-0.027,-0.0269,-0.0251,-0.0222,-0.0237,-0.0227,-0.0312,-0.0312,-0.0311,-0.0311,0,0.0396,0.0433,0.0505,0.0581,0.0665,0.0743,0.0777,0.082,0.0854,0.0842,0.0821,0.0649,0.055,0.029,0.0117,-0.0053,-0.0093,-0.0137,-0.0143,-0.0142,-0.0067,-0.0005,-0.0058,0,0,0,0,0,0.0412,0.0461,0.0535,0.0626,0.0708,0.076,0.084,0.0865,0.089,0.0874,0.0856,0.071,0.0448,0.033,0.016,0.0083,-0.0134,-0.0124,-0.0189,-0.0332,-0.0328,-0.027,0,0,0,0,0,0,0.0426,0.0497,0.0536,0.065,0.0715,0.0811,0.0865,0.088,0.0877,0.0869,0.0735,0.0666,0.0411,0.0545,0.0155,0.0101,0.0036,-0.0248,-0.0252,-0.0335,-0.0331,-0.0328,-0.0266,0,0,0,0,0]}]]